Other Surface Observations
Issued by NWS

Home | Current Version | Previous Version | Text Only | Print | Product List | Glossary On
Versions: 1 2 3 4 5 6 7 8 9 10 11 12 13 14 15 16 17 18 19 20 21 22 23 24 25 26 27 28 29 30 31 32 33 34 35 36 37 38 39 40 41 42 43 44 45 46 47 48 49 50
000
SXUS52 KTAE 180506
OSOTAE
OSOTAE
North Florida/South Alabama/Southwest Georgia Weather Roundup
National Weather Service Tallahassee Florida
100 AM EDT WED OCT 18 2017

Note: "fair" indicates few or no clouds below 12,000 feet with no
significant weather and/or obstructions to visibility.

!FLZ017-115-028-034-025-180600
...North Florida...

CITY           SKY/WX    TMP DP  RH WIND       PRES   REMARKS
TALLAHASSEE    NOT AVBL
APALACHICOLA   PTCLDY    61  53  75 NE10      30.18S
PERRY          NOT AVBL
CROSS CITY     CLEAR     59  54  83 N7        30.21S
JACKSONVILLE   CLOUDY    62  56  80 NW10      30.16F
$$

!FLZ112-006-005-002-011-180600
...Florida Panhandle...

CITY           SKY/WX    TMP DP  RH WIND       PRES   REMARKS
MARIANNA       CLEAR     53  44  71 NE6       30.20F
BONIFAY        NOT AVBL
PANAMA CITY NW FAIR      56  47  71 NE6       30.18F
TYNDALL AFB    CLEAR     62  47  58 E8        30.19S
TYND DRONE APT FAIR      61  48  61 E10       30.19S
DE FUNIAK SPR  FAIR      57  44  61 E6        30.21F
EGLIN AFB      CLEAR     64  42  45 E7        30.18F
DESTIN         CLEAR     69  47  45 E8        30.18F
HURLBURT       CLEAR     60  47  62 NE5       30.17S
CRESTVIEW      CLEAR     49  47  93 NE3       30.21F
PENSACOLA      CLEAR     65  48  54 NE6       30.19S
$$

!ALZ063-066-180600
...South Alabama...

CITY           SKY/WX    TMP DP  RH WIND       PRES   REMARKS
DOTHAN         CLEAR     54  45  71 NE5       30.25F
OZARK CAIRNS   CLEAR     52  46  80 NE7       30.21F
FT RUCKER HELI CLEAR     49  49  99 CALM      30.21F
RUCKER HELI 3  FAIR      54  46  76 NE3       30.21F
RUCKER HELI 2  FAIR      56  44  64 NE5       30.21F
FLORALA APT    CLEAR     52  46  80 CALM      30.23F
ANDALUSIA      CLEAR     55  48  77 E3        30.21F
TROY           CLEAR     52  48  86 NE3       30.24F
EUFALA         FAIR      49  47  93 CALM      30.24S
MOBILE         CLEAR     58  53  84 NE6       30.20F
$$

!GAZ120>161-180600
...Southwest and South Central Georgia...

CITY           SKY/WX    TMP DP  RH WIND       PRES   REMARKS
THOMASVILLE    FAIR      55  45  67 NE3       30.23S
BAINBRIDGE     CLEAR     54  48  82 NE3       30.23S
MOODY AFB      CLEAR     53  44  74 NE6       30.21S
VALDOSTA       CLEAR     55  46  71 NE8       30.21F
MOULTRIE       CLEAR     55  43  62 CALM      30.23S
BLAKELY        PTCLDY    50  45  81 CALM      30.24S
ALBANY         PTCLDY    52  44  74 NE6       30.25F
TIFTON         FAIR      52  44  74 CALM      30.23F
FITZGERALD     FAIR      50  46  86 NE5       30.27S
CORDELE        FAIR      53  46  77 NE3       30.26F
AMERICUS       FAIR      46  41  81 NE6       30.27F WCI  43
HOMERVILLE     FAIR      54  45  71 NE6       30.22S
$$

!GMZ750-755-770-775-180600
...Coastal and Buoy Obs...

STATION/POSITION TIME  TEMP    WIND        PRES    VSBY  WAVE
                       AIR SEA DIR/SP/G                  HT/PER
                 (UTC) (F)     (DEG/KT/KT) (MB)    (MI)  (FT/S)
KEATON BEACH     0500   59      40/  8/ 12 1021.1F
CEDAR KEY        0400   64      50/ 11/ 14 1021.0S
C TOWER          0500   69      80/ 19/ 21 1021.6F
APALACHICOLA BUO 0450   74 81   70/ 16/ 19 1019.7S         6/ 7
PANAMA CITY BUOY 0450   76 82   70/ 19/ 23 1019.5S         7/ 7
MOBILE BUOY      0450   78 82   70/ 16/ 21 1020.2F         6/ 7
ORANGE BCH AL BU 0450   74 79   80/ 17/ 21 1020.8F         4/ 4
$$




USA.gov is the U.S. government's official web portal to all federal, state and local government web resources and services.